Time,TemperatureF,DewpointF,PressureIn,WindDirection,WindDirectionDegrees,WindSpeedMPH,WindSpeedGustMPH,Humidity,HourlyPrecipIn,Conditions,Clouds,dailyrainin,SoftwareType,DateUTC
2013-07-30 10:20:00,74.6,61.2,30.07,West,265,1.0,1.0,63,0.00,,,0.00,Wunderground v.1.15,2013-07-30 14:20:00,
2013-07-30 10:25:00,74.9,61.0,30.07,WSW,247,1.0,1.0,62,0.00,,,0.00,Wunderground v.1.15,2013-07-30 14:25:00,
2013-07-30 10:30:00,75.2,61.3,30.08,West,263,1.0,4.0,62,0.00,,,0.00,Wunderground v.1.15,2013-07-30 14:30:00,
2013-07-30 10:35:00,75.1,60.7,30.08,West,263,1.0,4.0,61,0.00,,,0.00,Wunderground v.1.15,2013-07-30 14:35:00,
2013-07-30 10:40:00,75.1,61.2,30.08,West,263,1.0,1.0,62,0.00,,,0.00,Wunderground v.1.15,2013-07-30 14:40:00,
2013-07-30 10:45:00,75.3,61.4,30.08,West,263,1.0,1.0,62,0.00,,,0.00,Wunderground v.1.15,2013-07-30 14:45:00,
2013-07-30 10:50:00,75.7,61.8,30.08,West,263,1.0,1.0,62,0.00,,,0.00,Wunderground v.1.15,2013-07-30 14:50:00,
2013-07-30 11:00:00,76.0,60.6,30.08,West,269,1.0,1.0,59,0.00,,,0.00,Wunderground v.1.15,2013-07-30 15:00:00,
2013-07-30 11:05:00,76.3,61.9,30.07,ESE,119,2.0,2.0,61,0.00,,,0.00,Wunderground v.1.15,2013-07-30 15:05:00,
2013-07-30 11:15:00,77.2,60.8,30.07,NNW,330,1.0,2.0,57,0.00,,,0.00,Wunderground v.1.15,2013-07-30 15:15:00,
2013-07-30 11:25:00,77.7,60.2,30.07,WNW,300,1.0,5.0,55,0.00,,,0.00,Wunderground v.1.15,2013-07-30 15:25:00,
2013-07-30 11:30:00,77.9,59.9,30.07,WSW,244,1.0,2.0,54,0.00,,,0.00,Wunderground v.1.15,2013-07-30 15:30:00,
2013-07-30 11:35:00,78.2,61.2,30.07,WSW,257,1.0,2.0,56,0.00,,,0.00,Wunderground v.1.15,2013-07-30 15:35:00,
2013-07-30 11:45:00,78.3,60.8,30.07,WNW,284,2.0,2.0,55,0.00,,,0.00,Wunderground v.1.15,2013-07-30 15:45:00,
2013-07-30 11:55:00,78.6,60.0,30.06,SE,144,2.0,5.0,53,0.00,,,0.00,Wunderground v.1.15,2013-07-30 15:55:00,
2013-07-30 12:05:00,79.1,61.5,30.06,South,189,1.0,2.0,55,0.00,,,0.00,Wunderground v.1.15,2013-07-30 16:05:00,
2013-07-30 12:10:00,79.6,61.5,30.06,WNW,303,2.0,2.0,54,0.00,,,0.00,Wunderground v.1.15,2013-07-30 16:10:00,
2013-07-30 12:15:00,80.0,60.8,30.06,West,274,3.0,3.0,52,0.00,,,0.00,Wunderground v.1.15,2013-07-30 16:15:00,
2013-07-30 12:20:00,80.1,60.9,30.06,West,272,2.0,2.0,52,0.00,,,0.00,Wunderground v.1.15,2013-07-30 16:20:00,
2013-07-30 12:30:00,80.8,61.0,30.06,WSW,240,1.0,1.0,51,0.00,,,0.00,Wunderground v.1.15,2013-07-30 16:30:00,
2013-07-30 12:35:00,80.5,60.7,30.06,WNW,297,1.0,1.0,51,0.00,,,0.00,Wunderground v.1.15,2013-07-30 16:35:00,
2013-07-30 12:45:00,80.6,60.2,30.05,NW,304,2.0,2.0,50,0.00,,,0.00,Wunderground v.1.15,2013-07-30 16:45:00,
2013-07-30 12:55:00,80.5,60.1,30.05,WNW,294,2.0,2.0,50,0.00,,,0.00,Wunderground v.1.15,2013-07-30 16:55:00,
2013-07-30 13:00:00,80.7,59.8,30.05,WNW,297,2.0,2.0,49,0.00,,,0.00,Wunderground v.1.15,2013-07-30 17:00:00,
2013-07-30 13:10:00,81.3,59.1,30.05,WNW,291,1.0,5.0,47,0.00,,,0.00,Wunderground v.1.15,2013-07-30 17:10:00,
2013-07-30 13:20:00,82.0,57.9,30.05,SSW,198,3.0,5.0,44,0.00,,,0.00,Wunderground v.1.15,2013-07-30 17:20:00,
2013-07-30 13:30:00,82.8,59.9,30.05,West,263,1.0,1.0,46,0.00,,,0.00,Wunderground v.1.15,2013-07-30 17:30:00,
2013-07-30 13:40:00,83.1,57.6,30.04,West,274,2.0,4.0,42,0.00,,,0.00,Wunderground v.1.15,2013-07-30 17:40:00,
2013-07-30 13:50:00,83.6,58.7,30.05,West,281,2.0,4.0,43,0.00,,,0.00,Wunderground v.1.15,2013-07-30 17:50:00,
2013-07-30 13:55:00,83.7,58.2,30.05,West,277,2.0,5.0,42,0.00,,,0.00,Wunderground v.1.15,2013-07-30 17:55:00,
2013-07-30 14:05:00,83.2,58.4,30.04,SW,227,2.0,3.0,43,0.00,,,0.00,Wunderground v.1.15,2013-07-30 18:05:00,
2013-07-30 14:15:00,83.4,59.2,30.04,South,173,1.0,4.0,44,0.00,,,0.00,Wunderground v.1.15,2013-07-30 18:15:00,
2013-07-30 14:20:00,83.7,58.8,30.04,WNW,284,2.0,7.0,43,0.00,,,0.00,Wunderground v.1.15,2013-07-30 18:20:00,
2013-07-30 14:30:00,82.5,57.7,30.04,SW,221,2.0,2.0,43,0.00,,,0.00,Wunderground v.1.15,2013-07-30 18:30:00,
2013-07-30 14:40:00,83.3,57.8,30.04,WNW,293,2.0,2.0,42,0.00,,,0.00,Wunderground v.1.15,2013-07-30 18:40:00,
2013-07-30 14:50:00,83.4,57.9,30.04,WNW,287,2.0,2.0,42,0.00,,,0.00,Wunderground v.1.15,2013-07-30 18:50:00,
2013-07-30 15:00:00,83.7,56.8,30.03,WNW,284,2.0,2.0,40,0.00,,,0.00,Wunderground v.1.15,2013-07-30 19:00:00,
2013-07-30 15:05:00,84.2,57.9,30.03,WSW,240,2.0,2.0,41,0.00,,,0.00,Wunderground v.1.15,2013-07-30 19:05:00,
2013-07-30 15:15:00,84.7,59.7,30.03,West,271,1.0,1.0,43,0.00,,,0.00,Wunderground v.1.15,2013-07-30 19:15:00,
2013-07-30 15:25:00,84.6,56.9,30.02,SSE,168,1.0,4.0,39,0.00,,,0.00,Wunderground v.1.15,2013-07-30 19:25:00,
2013-07-30 15:35:00,84.3,57.3,30.02,West,265,2.0,2.0,40,0.00,,,0.00,Wunderground v.1.15,2013-07-30 19:35:00,
2013-07-30 15:40:00,84.1,57.2,30.02,West,265,1.0,1.0,40,0.00,,,0.00,Wunderground v.1.15,2013-07-30 19:40:00,
2013-07-30 15:45:00,83.8,56.2,30.02,SW,221,2.0,2.0,39,0.00,,,0.00,Wunderground v.1.15,2013-07-30 19:45:00,
2013-07-30 15:55:00,84.5,56.8,30.02,WNW,284,1.0,2.0,39,0.00,,,0.00,Wunderground v.1.15,2013-07-30 19:55:00,
2013-07-30 16:05:00,85.7,57.9,30.02,SE,140,1.0,4.0,39,0.00,,,0.00,Wunderground v.1.15,2013-07-30 20:05:00,
2013-07-30 16:10:00,86.0,56.7,30.02,SE,140,1.0,2.0,37,0.00,,,0.00,Wunderground v.1.15,2013-07-30 20:10:00,
2013-07-30 16:20:00,85.7,56.4,30.01,SE,144,1.0,1.0,37,0.00,,,0.00,Wunderground v.1.15,2013-07-30 20:20:00,
2013-07-30 16:30:00,85.1,55.9,30.01,West,260,2.0,2.0,37,0.00,,,0.00,Wunderground v.1.15,2013-07-30 20:30:00,
2013-07-30 16:40:00,83.3,56.5,30.01,WNW,294,1.0,1.0,40,0.00,,,0.00,Wunderground v.1.15,2013-07-30 20:40:00,
2013-07-30 16:50:00,82.8,56.7,30.01,WNW,294,0.0,0.0,41,0.00,,,0.00,Wunderground v.1.15,2013-07-30 20:50:00,
2013-07-30 16:55:00,82.7,57.3,30.01,WNW,294,0.0,0.0,42,0.00,,,0.00,Wunderground v.1.15,2013-07-30 20:55:00,